Regional Weather Roundup
Issued by NWS

Home | Current Version | Previous Version | Text Only | Print | Product List | Glossary Off
Versions: 1 2 3 4 5 6 7 8 9 10 11 12 13 14 15 16 17 18 19 20 21 22 23 24 25 26 27 28 29 30 31 32 33 34 35 36 37 38 39 40 41 42 43 44 45 46 47 48 49 50

971
ASUS43 KLSX 200707
RWRMO

WEATHER SUMMARY FOR MISSOURI
NATIONAL WEATHER SERVICE SPRINGFIELD MO
200 AM CDT FRI APR 20 2018

NOTE: "FAIR" INDICATES FEW OR NO CLOUDS BELOW 12,000 FEET WITH NO
       SIGNIFICANT WEATHER AND/OR OBSTRUCTIONS TO VISIBILITY.
       CURRENT SKY AND/OR WEATHER CONDITIONS ARE NOT AVAILABLE FOR
       CHILLICOTHE AND FARMINGTON.

MOZ001>031-035>038-043-044-053-054-200800-
...NORTHERN AND WESTERN MISSOURI...

CITY           SKY/WX    TMP DP  RH WIND       PRES   REMARKS
KANSAS CTY INT CLEAR     42  29  59 NE3       30.42R
KANSAS C DTWN  CLEAR     46  30  53 E3        30.42R
LEE`S SUMMIT   CLEAR     44  31  60 SE3       30.42R
ST JOSEPH      CLEAR     37  29  72 CALM      30.43S
CHILLICOTHE      N/A     34  27  75 NW3       30.45S
KIRKSVILLE     CLEAR     37  25  61 CALM      30.45R

$$
MOZ066>068-077>081-088>096-101>105-200800-
...SOUTHWEST MISSOURI...

CITY           SKY/WX    TMP DP  RH WIND       PRES   REMARKS
SPRINGFIELD    CLEAR     44  30  57 E9        30.38S
JOPLIN         CLEAR     41  32  70 E3        30.38S
BRANSON        CLEAR     41  30  65 E9        30.40R

$$
MOZ032>034-039>042-045>050-055>058-069>072-200800-
...CENTRAL MISSOURI...

CITY           SKY/WX    TMP DP  RH WIND       PRES   REMARKS
COLUMBIA       CLEAR     43  28  55 E7        30.42S
JEFFERSON CITY CLEAR     37  31  78 CALM      30.43S
ROLLA          CLEAR     37  28  70 CALM      30.41S
SEDALIA        CLEAR     43  31  62 CALM      30.43S
WHITEMAN AFB   CLEAR     41  28  60 CALM      30.37F
WARRENSBURG    CLEAR     36  32  87 CALM      30.42S
OSAGE BEACH    CLOUDY    37  29  72 CALM      30.42S

$$
MOZ051-052-059>065-200800-
...EAST CENTRAL MISSOURI...

CITY           SKY/WX    TMP DP  RH WIND       PRES   REMARKS
ST LOUIS INTL  CLEAR     44  29  55 NE6       30.44R
SPIRIT OF STL  CLEAR     33  31  92 CALM      30.43S
ST CHARLES     CLEAR     43  28  55 NE7       30.44R

$$
MOZ072>076-082>087-097>100-106>115-200800-
...SOUTH CENTRAL AND SOUTHEAST MISSOURI...

CITY           SKY/WX    TMP DP  RH WIND       PRES   REMARKS
CAPE GIRARDEAU FAIR      38  33  82 E5        30.39F
FARMINGTON     CLEAR     32  30  92 CALM      30.41S
POPLAR BLUFF   FAIR      39  36  89 NW3       30.39F
WEST PLAINS    CLEAR     37  28  70 NE5       30.40S

$$




USA.gov is the U.S. government's official web portal to all federal, state and local government web resources and services.